Wind_Speed
9 8 9 8 7 7 6 5 4 3 2 1 1 1 2 3 4 5 5 6 7 8 8 9 10 10 10 11 12 13 13 14 14 15 16 17 18 19
8 8 7 8 8 7 6 5 4 4 3 2 1 2 3 4 6 6 6 7 8 8 9 10 11 11 12 13 13 14 15 16 16 17 17 18 20 21
6 6 6 7 7 6 6 5 4 4 4 3 3 5 6 6 7 6 7 7 8 8 9 10 11 12 13 14 15 16 16 17 18 19 19 20 21 22
5 5 6 6 6 6 6 5 5 5 5 5 6 6 6 7 8 7 8 9 10 10 11 12 13 14 15 16 16 17 18 19 20 21 22 22 23 24
4 5 5 5 5 5 6 6 6 6 7 7 8 8 8 8 8 8 10 11 11 12 14 15 16 17 17 18 19 20 21 22 23 23 24 25 26 26
4 4 4 5 5 5 6 6 7 8 9 9 10 10 10 10 10 11 13 14 14 15 17 18 19 20 20 21 22 23 24 25 26 27 28 28 28 29
5 5 5 6 6 7 7 8 9 10 11 11 12 13 13 13 14 14 15 16 18 19 20 21 22 22 23 24 25 26 27 28 28 29 30 31 31 32
7 7 7 8 8 9 10 10 11 12 13 14 14 15 16 16 17 17 18 19 20 21 22 23 24 25 26 27 28 28 29 30 31 32 33 34 34 35
9 9 9 10 10 11 12 13 13 13 15 15 16 17 17 18 19 19 20 21 22 23 24 25 25 26 28 29 30 30 31 32 33 34 35 36 37 38
11 11 11 12 12 13 14 15 15 16 17 17 18 19 19 20 21 22 23 24 24 25 26 26 27 28 29 31 32 33 34 34 35 36 37 38 39 41
13 13 14 14 15 16 16 17 17 18 19 19 21 21 22 23 24 24 25 26 27 27 28 28 29 30 31 33 35 36 37 37 38 39 40 41 41 43
15 16 16 17 17 18 19 20 20 20 21 22 23 24 25 26 26 27 28 28 29 29 30 31 32 32 32 34 36 38 39 40 41 41 42 44 45 46
18 18 19 19 20 21 22 22 22 23 24 25 26 27 28 28 29 30 31 31 31 32 33 33 34 35 36 37 38 39 41 42 43 44 46 47 48 49
21 21 22 23 23 24 24 25 25 26 27 28 29 30 31 31 32 33 34 34 35 36 37 38 38 39 40 41 41 42 43 45 46 48 49 50 51 52
24 25 25 26 26 26 27 27 28 29 30 31 32 33 33 34 35 36 37 38 39 39 40 40 41 42 43 44 45 46 47 47 49 50 51 53 55 56
27 27 28 28 29 29 29 30 31 32 34 34 35 36 37 38 39 39 40 40 41 42 43 44 44 45 46 47 48 49 50 51 51 53 54 55 57 58
29 30 30 31 31 32 33 34 35 36 37 37 38 39 40 41 42 42 43 43 44 45 45 46 48 49 49 51 51 53 54 54 55 56 57 57 57 59
32 33 34 34 35 35 36 37 38 39 40 41 42 43 43 44 44 45 46 47 47 48 49 50 51 52 52 53 55 56 57 57 58 59 60 59 58 58
35 36 37 37 38 39 40 41 42 43 43 44 45 46 46 47 48 48 49 50 50 51 51 52 53 55 56 56 56 58 59 60 60 59 60 60 59 59
39 39 40 41 41 42 43 44 45 46 47 47 48 49 49 50 51 51 52 53 53 53 54 55 56 57 59 59 59 59 60 61 61 61 60 60 60 59
42 42 43 44 45 46 46 47 48 49 50 50 51 51 52 53 54 55 55 56 56 57 57 58 59 60 61 62 61 60 60 61 61 61 61 61 60 59
45 45 46 47 47 48 49 50 51 51 52 52 53 54 55 56 57 58 58 59 60 60 60 61 62 62 62 62 62 61 60 60 60 61 62 62 62 60
47 48 49 50 50 51 52 52 53 54 54 55 56 57 57 58 59 60 61 61 62 62 63 63 62 62 63 63 63 62 61 61 61 61 60 60 60 59
Wind_Direction
63 62 60 59 60 61 59 56 51 54 61 81 149 212 242 250 257 265 266 269 263 262 264 261 258 256 256 259 259 261 262 259 257 257 257 256 254 252
58 58 56 54 53 52 49 44 39 33 25 22 341 299 283 278 269 268 273 278 272 268 270 270 269 267 264 265 268 266 266 265 265 263 260 259 259 258
51 48 46 43 41 40 39 36 30 21 6 351 335 321 305 296 292 282 279 283 277 274 278 279 276 275 272 271 273 272 271 268 267 266 266 265 264 263
36 34 31 29 26 25 22 19 14 6 358 350 335 328 313 301 298 292 287 286 285 282 281 281 280 278 278 277 276 276 274 272 270 269 268 268 268 268
15 12 11 10 9 6 4 359 355 347 341 337 332 332 323 312 304 300 293 291 292 286 283 283 282 282 282 282 281 282 281 277 273 271 269 268 268 268
353 353 351 348 344 344 342 339 335 331 328 326 324 326 324 315 309 304 299 297 296 293 288 285 283 283 285 285 284 284 284 284 279 276 273 272 269 268
316 319 323 326 326 325 324 324 322 320 321 321 319 316 314 312 308 303 297 296 295 294 291 287 283 282 283 285 284 284 284 285 283 279 276 276 273 272
305 306 305 306 311 313 313 313 313 313 312 314 314 312 310 309 308 305 301 298 297 295 293 290 285 284 283 285 285 285 285 286 284 282 279 276 275 275
301 304 305 303 302 305 309 309 309 310 310 310 310 309 309 308 307 306 305 303 300 298 295 293 290 288 286 285 286 286 286 287 286 284 282 279 277 277
295 299 300 301 301 303 305 307 307 307 307 307 307 308 308 308 307 306 306 304 301 299 296 294 292 291 289 288 288 288 287 288 288 286 284 282 280 278
291 294 296 297 298 300 302 304 305 305 305 305 305 307 307 307 307 306 307 305 302 301 299 296 293 293 292 291 290 289 289 288 288 287 286 284 282 280
288 290 293 295 297 299 300 301 302 303 304 304 304 304 305 305 305 305 306 305 304 302 300 298 296 294 292 292 292 290 289 289 288 288 287 286 285 283
285 288 290 292 294 296 297 298 300 301 303 304 304 304 304 304 304 304 304 304 303 301 300 298 297 296 295 293 292 292 291 290 289 288 288 287 286 285
286 288 290 291 292 295 296 297 299 300 301 302 303 303 303 303 303 303 303 302 302 300 300 300 299 298 296 296 295 294 293 293 292 290 289 288 288 287
286 288 290 290 292 293 294 295 297 298 299 300 301 301 302 302 302 302 302 301 301 300 300 299 299 299 298 297 296 296 295 293 293 292 291 290 290 289
285 288 289 290 291 292 293 294 295 297 297 299 299 300 300 301 301 301 301 300 300 300 299 299 298 298 297 297 297 297 296 295 294 293 293 292 291 290
284 286 288 289 290 292 292 293 295 296 297 297 298 298 299 300 300 300 300 300 300 299 298 298 298 298 298 298 298 298 297 297 295 294 294 293 293 292
284 285 287 289 290 291 292 293 294 296 296 296 297 297 298 299 299 299 299 299 299 299 298 298 297 297 298 298 298 298 297 297 296 295 294 294 294 293
283 285 287 288 289 290 291 293 294 295 295 296 296 297 297 298 298 299 299 299 299 298 298 298 298 298 298 297 298 298 297 297 297 296 296 295 295 294
284 286 287 288 289 290 291 293 293 294 295 295 296 296 297 297 297 298 298 299 299 298 298 298 298 298 298 298 298 297 297 298 297 297 296 296 296 295
285 286 287 288 289 290 291 292 293 294 295 295 296 296 296 297 297 298 298 298 298 298 298 298 297 297 297 298 298 298 298 298 298 298 297 296 296 295
286 287 288 289 290 291 292 292 293 294 294 295 296 296 296 297 297 297 297 298 298 298 298 297 297 297 298 298 298 298 298 297 297 298 298 298 297 296
286 287 288 289 290 291 292 292 293 294 294 295 295 295 296 296 297 297 297 297 297 298 298 298 298 298 298 298 298 298 297 296 296 296 297 297 297 297
Height
5870 5870 5869 5869 5868 5868 5868 5868 5868 5868 5867 5867 5867 5867 5867 5867 5868 5868 5868 5868 5868 5869 5869 5869 5870 5870 5871 5871 5871 5872 5873 5873 5874 5875 5875 5876 5877 5878
5872 5871 5871 5870 5870 5869 5869 5868 5868 5868 5867 5867 5867 5867 5866 5866 5866 5866 5866 5866 5866 5866 5867 5867 5867 5868 5868 5868 5869 5869 5869 5870 5870 5870 5871 5871 5872 5872
5873 5873 5872 5871 5871 5870 5870 5869 5868 5868 5867 5867 5866 5865 5864 5864 5863 5863 5864 5864 5864 5864 5865 5865 5865 5865 5865 5865 5865 5865 5865 5865 5866 5866 5866 5866 5866 5867
5874 5873 5872 5872 5871 5871 5870 5869 5868 5868 5867 5866 5865 5864 5862 5862 5861 5861 5862 5862 5862 5862 5862 5862 5862 5862 5861 5861 5861 5861 5861 5861 5861 5861 5861 5861 5860 5860
5874 5873 5872 5872 5871 5870 5870 5869 5868 5867 5866 5865 5864 5862 5860 5860 5859 5859 5859 5859 5859 5858 5858 5858 5858 5857 5857 5857 5856 5856 5855 5855 5854 5854 5854 5854 5854 5854
5874 5873 5872 5871 5871 5870 5869 5868 5867 5866 5865 5864 5863 5861 5860 5858 5858 5857 5856 5856 5855 5854 5854 5853 5853 5852 5852 5851 5851 5850 5849 5848 5847 5847 5846 5846 5846 5846
5873 5872 5871 5870 5870 5869 5868 5867 5866 5865 5864 5862 5861 5859 5858 5856 5855 5854 5853 5852 5851 5850 5849 5848 5847 5846 5846 5845 5844 5843 5842 5841 5839 5838 5838 5838 5837 5837
5871 5870 5869 5869 5868 5867 5866 5865 5864 5863 5862 5860 5859 5857 5855 5854 5852 5850 5849 5848 5846 5845 5842 5841 5840 5839 5838 5838 5836 5835 5834 5832 5831 5829 5828 5828 5828 5827
5869 5868 5867 5866 5866 5865 5864 5863 5862 5860 5859 5857 5856 5854 5852 5850 5848 5846 5844 5842 5840 5838 5836 5834 5832 5831 5830 5829 5828 5826 5825 5823 5821 5820 5818 5817 5817 5816
5867 5866 5865 5864 5863 5862 5861 5860 5858 5857 5855 5853 5852 5850 5848 5846 5843 5841 5838 5836 5833 5830 5828 5827 5825 5823 5821 5819 5818 5816 5815 5813 5811 5809 5807 5806 5805 5804
5864 5863 5862 5861 5860 5859 5858 5856 5855 5853 5851 5849 5847 5845 5842 5840 5838 5835 5832 5829 5826 5823 5820 5818 5817 5815 5813 5811 5808 5806 5804 5802 5800 5797 5795 5793 5792 5791
5861 5860 5859 5858 5856 5855 5853 5852 5850 5848 5846 5844 5842 5839 5837 5834 5831 5828 5825 5822 5818 5816 5813 5810 5808 5806 5805 5803 5799 5796 5793 5791 5788 5785 5783 5780 5778 5776
5856 5855 5854 5853 5851 5850 5848 5846 5845 5843 5840 5838 5836 5833 5830 5827 5824 5821 5818 5814 5811 5808 5804 5801 5799 5796 5794 5792 5790 5786 5782 5778 5775 5772 5769 5766 5763 5760
5851 5850 5849 5847 5846 5844 5842 5840 5838 5836 5834 5831 5829 5826 5823 5819 5816 5813 5809 5806 5802 5799 5795 5791 5788 5785 5782 5780 5777 5774 5770 5765 5762 5758 5755 5751 5748 5744
5845 5844 5842 5841 5839 5837 5836 5834 5831 5829 5826 5824 5821 5817 5814 5811 5807 5804 5800 5796 5792 5788 5785 5781 5777 5774 5770 5767 5763 5760 5756 5752 5748 5743 5739 5735 5731 5727
5839 5837 5836 5834 5832 5830 5828 5826 5824 5821 5818 5815 5812 5809 5805 5802 5798 5794 5790 5786 5783 5779 5774 5769 5765 5761 5758 5754 5749 5745 5741 5736 5732 5727 5723 5719 5714 5709
5831 5829 5828 5826 5824 5822 5820 5817 5815 5812 5809 5806 5802 5799 5795 5791 5787 5783 5779 5775 5771 5767 5763 5758 5753 5748 5744 5740 5735 5730 5725 5720 5715 5709 5705 5701 5697 5690
5822 5820 5819 5817 5815 5813 5810 5808 5805 5802 5798 5795 5791 5788 5784 5780 5776 5772 5767 5763 5759 5754 5750 5745 5739 5735 5731 5726 5720 5713 5708 5703 5697 5691 5685 5681 5679 5673
5812 5811 5809 5807 5805 5802 5800 5797 5794 5790 5787 5783 5779 5775 5772 5767 5763 5759 5754 5750 5745 5740 5735 5730 5724 5719 5714 5711 5707 5698 5690 5685 5679 5674 5668 5662 5658 5654
5802 5800 5798 5796 5793 5791 5788 5785 5781 5778 5774 5770 5766 5762 5758 5754 5750 5745 5740 5735 5730 5725 5721 5715 5708 5702 5697 5692 5689 5684 5674 5665 5660 5655 5650 5644 5639 5634
5791 5789 5787 5784 5781 5778 5775 5772 5768 5765 5761 5757 5753 5748 5744 5739 5735 5730 5725 5720 5714 5709 5704 5699 5692 5685 5679 5673 5669 5665 5658 5649 5641 5635 5629 5624 5620 5616
5779 5776 5774 5771 5768 5765 5762 5758 5754 5751 5746 5742 5738 5733 5728 5724 5719 5714 5708 5703 5697 5692 5687 5681 5675 5668 5661 5655 5649 5645 5640 5634 5625 5617 5609 5603 5597 5594
5766 5763 5760 5757 5754 5751 5747 5743 5739 5735 5731 5727 5722 5717 5712 5707 5702 5697 5691 5685 5680 5674 5668 5663 5657 5650 5643 5636 5631 5625 5620 5615 5608 5602 5596 5586 5579 5573